Location: Epalinges
(46.5518°N, 6.6683°E)
Time: 19:56:37
(UTC+00:00)

Tiangong - Pass Details

Date: 20 June 2021
Orbit: 373 x 386 km, 41.5° (Epoch: 02 August)

Event Time Altitude Azimuth Distance (km) Brightness Sun altitude
Exits shadow 02:45:28 - 192° (SSW) 1,564 3.6 -7.8°
Reaches altitude 10° 02:46:17 10° 180° (S) 1,390 3.5 -7.7°
Maximum altitude 02:47:39 12° 154° (SSE) 1,268 3.5 -7.6°
Drops below altitude 10° 02:49:00 10° 128° (SE) 1,397 4.0 -7.4°
Sets 02:52:02 0° 97° (E) 2,258 5.6 -7.1°
